Stevensville, MD

9:14 AM EDT on October 20, 2017 (GMT -0400)
Stevensville

Weather History for KW29 - July, 2014

Change the Weather History Date:

Monday, July 7, 2014

  Actual Average (KESN) Record (KESN)
Temperature  
Mean Temperature 81 °F -  
Max Temperature 89 °F 87 °F 102 °F (2012)
Min Temperature 73 °F 64 °F 54 °F (1964)
Cooling Degree Days 16    
Growing Degree Days 31 (Base 50)    
Moisture  
Dew Point 61 °F    
Average Humidity 52    
Maximum Humidity 69    
Minimum Humidity 36    
Precipitation  
Precipitation 0.00 in - - ()
Sea Level Pressure  
Sea Level Pressure 29.89 in    
Wind  
Wind Speed 9 mph (SSW)    
Max Wind Speed 13 mph    
Max Gust Speed 21 mph    
Visibility 10 miles    
Events      
Averages and records for this station are not official NWS values.
T = Trace of Precipitation, MM = Missing Value Source: NWS Daily Summary

Daily Weather History Graph

Daily Weather History Graph

Search for Another Location

Airport or City:

Trip Planner

Search our weather history database for the weather conditions in past years. The results will help you decide how hot, cold, wet, or windy it might be!

Date:

Astronomy

Jul. 07, 2014 Rise Set
Actual Time 5:46 AM EDT 8:33 PM EDT
Civil Twilight 5:14 AM EDT 9:05 PM EDT
Nautical Twilight 4:35 AM EDT 9:44 PM EDT
Astronomical Twilight 3:49 AM EDT 10:30 PM EDT
Moon 3:35 PM EDT (7/7) 1:37 AM EDT (7/7)
Length of Visible Light 15h 50m
Length of Day
14h 46m
Waxing Gibbous, 72% of the Moon is Illuminated
Jul 7
Waxing Gibbous
Jul 12
Full
Jul 18
Last Quarter
Jul 26
New
Aug 3
First Quarter

Hourly Weather History & Observations

Time (EDT) Temp. Heat Index Dew Point Humidity Pressure Visibility Wind Dir Wind Speed Gust Speed Precip Events Conditions
12:09 AM 77.0 °F - 62.6 °F 61% 29.96 in 10.0 mi South 11.5 mph 16.1 mph N/A   Unknown
12:29 AM 77.0 °F - 62.6 °F 61% 29.96 in 10.0 mi South 10.4 mph - N/A   Unknown
1:09 AM 77.0 °F - 62.6 °F 61% 29.95 in 10.0 mi South 10.4 mph 17.3 mph N/A   Unknown
1:29 AM 77.0 °F - 60.8 °F 57% 29.94 in 10.0 mi South 8.1 mph 16.1 mph N/A   Unknown
1:50 AM 77.0 °F - 60.8 °F 57% 29.94 in 10.0 mi South 9.2 mph 18.4 mph N/A   Unknown
2:10 AM 75.2 °F - 60.8 °F 61% 29.93 in 10.0 mi South 10.4 mph 16.1 mph N/A   Unknown
2:30 AM 75.2 °F - 60.8 °F 61% 29.93 in 10.0 mi SSW 10.4 mph 17.3 mph N/A   Unknown
2:50 AM 75.2 °F - 60.8 °F 61% 29.92 in 10.0 mi SSW 10.4 mph 16.1 mph N/A   Unknown
3:10 AM 75.2 °F - 60.8 °F 61% 29.92 in 10.0 mi SSW 9.2 mph 16.1 mph N/A   Unknown
3:30 AM 75.2 °F - 60.8 °F 61% 29.92 in 10.0 mi SSW 9.2 mph 16.1 mph N/A   Unknown
3:50 AM 75.2 °F - 60.8 °F 61% 29.92 in 10.0 mi SW 8.1 mph - N/A   Unknown
4:10 AM 73.4 °F - 60.8 °F 65% 29.92 in 10.0 mi SW 6.9 mph - N/A   Unknown
4:30 AM 73.4 °F - 60.8 °F 65% 29.92 in 10.0 mi SW 8.1 mph - N/A   Unknown
4:50 AM 73.4 °F - 60.8 °F 65% 29.92 in 10.0 mi SW 9.2 mph - N/A   Unknown
5:10 AM 73.4 °F - 60.8 °F 65% 29.92 in 10.0 mi SSW 8.1 mph - N/A   Unknown
5:30 AM 73.4 °F - 60.8 °F 65% 29.92 in 10.0 mi SSW 8.1 mph - N/A   Unknown
5:50 AM 73.4 °F - 60.8 °F 65% 29.92 in 10.0 mi SSW 8.1 mph - N/A   Unknown
6:10 AM 73.4 °F - 60.8 °F 65% 29.92 in 10.0 mi SW 9.2 mph - N/A   Unknown
6:30 AM 73.4 °F - 60.8 °F 65% 29.92 in 10.0 mi SW 5.8 mph - N/A   Unknown
6:50 AM 73.4 °F - 60.8 °F 65% 29.93 in 10.0 mi SSW 8.1 mph - N/A   Unknown
7:10 AM 73.4 °F - 60.8 °F 65% 29.93 in 10.0 mi SSW 4.6 mph - N/A   Unknown
7:30 AM 73.4 °F - 60.8 °F 65% 29.94 in 10.0 mi South 5.8 mph - N/A   Unknown
7:50 AM 73.4 °F - 60.8 °F 65% 29.94 in 10.0 mi SSW 5.8 mph - N/A   Unknown
8:10 AM 73.4 °F - 62.6 °F 69% 29.94 in 10.0 mi SSW 5.8 mph - N/A   Unknown
8:30 AM 73.4 °F - 62.6 °F 69% 29.94 in 10.0 mi SW 6.9 mph - N/A   Unknown
8:50 AM 75.2 °F - 62.6 °F 65% 29.94 in 10.0 mi SSW 6.9 mph - N/A   Unknown
9:10 AM 77.0 °F - 62.6 °F 61% 29.93 in 10.0 mi SW 8.1 mph - N/A   Unknown
9:30 AM 77.0 °F - 62.6 °F 61% 29.93 in 10.0 mi SSW 4.6 mph - N/A   Unknown
9:50 AM 78.8 °F - 62.6 °F 57% 29.92 in 10.0 mi SSW 6.9 mph - N/A   Unknown
10:11 AM 78.8 °F - 62.6 °F 57% 29.92 in 10.0 mi South 6.9 mph - N/A   Unknown
10:31 AM 80.6 °F 82.3 °F 64.4 °F 58% 29.92 in 10.0 mi SW 4.6 mph - N/A   Unknown
10:51 AM 80.6 °F 81.8 °F 62.6 °F 54% 29.92 in 10.0 mi SW 6.9 mph - N/A   Unknown
11:11 AM 80.6 °F 81.8 °F 62.6 °F 54% 29.92 in 10.0 mi SSW 6.9 mph - N/A   Unknown
11:31 AM 82.4 °F 83.4 °F 62.6 °F 51% 29.92 in 10.0 mi South 6.9 mph - N/A   Unknown
11:51 AM 82.4 °F 83.4 °F 62.6 °F 51% 29.91 in 10.0 mi South 8.1 mph - N/A   Unknown
12:11 PM 84.2 °F 85.0 °F 62.6 °F 48% 29.91 in 10.0 mi South 11.5 mph - N/A   Unknown
12:31 PM 86.0 °F 86.1 °F 60.8 °F 43% 29.90 in 10.0 mi SSW 10.4 mph - N/A   Unknown
12:51 PM 86.0 °F 87.3 °F 64.4 °F 48% 29.89 in 10.0 mi South 8.1 mph - N/A   Unknown
1:11 PM 86.0 °F 86.1 °F 60.8 °F 43% 29.89 in 10.0 mi SSW 10.4 mph 17.3 mph N/A   Unknown
1:31 PM 87.8 °F 87.6 °F 60.8 °F 40% 29.88 in 10.0 mi South 10.4 mph - N/A   Unknown
1:51 PM 87.8 °F 87.6 °F 60.8 °F 40% 29.87 in 10.0 mi South 12.7 mph 19.6 mph N/A   Unknown
2:11 PM 87.8 °F 87.6 °F 60.8 °F 40% 29.87 in 10.0 mi South 10.4 mph 20.7 mph N/A   Unknown
2:31 PM 87.8 °F 87.1 °F 59.0 °F 38% 29.87 in 10.0 mi SSW 11.5 mph 18.4 mph N/A   Unknown
2:51 PM 89.6 °F 88.9 °F 59.0 °F 36% 29.87 in 10.0 mi South 12.7 mph 17.3 mph N/A   Unknown
3:11 PM 87.8 °F 87.6 °F 60.8 °F 40% 29.86 in 10.0 mi SSW 10.4 mph - N/A   Unknown
3:31 PM 89.6 °F 89.5 °F 60.8 °F 38% 29.85 in 10.0 mi SSW 10.4 mph 18.4 mph N/A   Unknown
3:51 PM 89.6 °F 89.5 °F 60.8 °F 38% 29.85 in 10.0 mi South 11.5 mph 19.6 mph N/A   Unknown
4:11 PM 89.6 °F 89.5 °F 60.8 °F 38% 29.84 in 10.0 mi South 10.4 mph 17.3 mph N/A   Unknown
4:31 PM 89.6 °F 89.5 °F 60.8 °F 38% 29.84 in 10.0 mi SSW 10.4 mph 16.1 mph N/A   Unknown
4:51 PM 89.6 °F 90.1 °F 62.6 °F 40% 29.83 in 10.0 mi SSW 8.1 mph 16.1 mph N/A   Unknown
5:11 PM 89.6 °F 90.1 °F 62.6 °F 40% 29.82 in 10.0 mi South 9.2 mph - N/A   Unknown
5:31 PM 89.6 °F 90.1 °F 62.6 °F 40% 29.82 in 10.0 mi SSW 11.5 mph 16.1 mph N/A   Unknown
5:51 PM 89.6 °F 89.5 °F 60.8 °F 38% 29.82 in 10.0 mi SW 10.4 mph - N/A   Unknown
6:11 PM 89.6 °F 89.5 °F 60.8 °F 38% 29.82 in 10.0 mi SSW 9.2 mph - N/A   Unknown
6:31 PM 87.8 °F 87.6 °F 60.8 °F 40% 29.81 in 10.0 mi SSW 6.9 mph - N/A   Unknown
6:51 PM 87.8 °F 87.6 °F 60.8 °F 40% 29.81 in 10.0 mi SSW 5.8 mph - N/A   Unknown
7:12 PM 87.8 °F 87.6 °F 60.8 °F 40% 29.81 in 10.0 mi SSW 6.9 mph - N/A   Unknown
7:32 PM 87.8 °F 87.6 °F 60.8 °F 40% 29.82 in 10.0 mi SSW 9.2 mph - N/A   Unknown
7:52 PM 86.0 °F 86.1 °F 60.8 °F 43% 29.83 in 10.0 mi SSW 6.9 mph - N/A   Unknown
8:12 PM 86.0 °F 86.1 °F 60.8 °F 43% 29.83 in 10.0 mi SSW 6.9 mph - N/A   Unknown
8:32 PM 86.0 °F 86.1 °F 60.8 °F 43% 29.83 in 10.0 mi SSW 5.8 mph - N/A   Unknown
8:52 PM 84.2 °F 85.0 °F 62.6 °F 48% 29.83 in 10.0 mi SSW 3.5 mph - N/A   Unknown
9:12 PM 84.2 °F 85.0 °F 62.6 °F 48% 29.84 in 10.0 mi South 6.9 mph - N/A   Unknown
9:32 PM 82.4 °F 82.9 °F 60.8 °F 48% 29.84 in 10.0 mi SSW 6.9 mph - N/A   Unknown
9:52 PM 82.4 °F 82.9 °F 60.8 °F 48% 29.85 in 10.0 mi South 5.8 mph - N/A   Unknown
10:12 PM 82.4 °F 82.9 °F 60.8 °F 48% 29.86 in 10.0 mi South 4.6 mph - N/A   Unknown
10:32 PM 82.4 °F 82.9 °F 60.8 °F 48% 29.87 in 10.0 mi South 5.8 mph - N/A   Unknown
10:52 PM 82.4 °F 82.9 °F 60.8 °F 48% 29.86 in 10.0 mi South 5.8 mph - N/A   Unknown
11:12 PM 82.4 °F 82.9 °F 60.8 °F 48% 29.86 in 10.0 mi South 5.8 mph - N/A   Unknown
11:32 PM 82.4 °F 82.9 °F 60.8 °F 48% 29.86 in 10.0 mi South 6.9 mph - N/A   Unknown
11:52 PM 80.6 °F 81.5 °F 60.8 °F 51% 29.86 in 10.0 mi South 9.2 mph - N/A   Unknown